Location: Newark
(43.0000°N, 1.6781°W)
Time: 13:44:36
(UTC+00:00)

ITUPSAT 1 - Visible Passes

Search period start: 08 December 2022 00:00
Search period end: 18 December 2022 00:00
Orbit: 700 x 710 km, 98.5° (Epoch: 07 December)

Date Brightness Start Highest point End Pass type
(mag) Time Alt. Az. Time Alt. Az. Time Alt. Az.
08 Dec ? 06:44:23 10° ESE 06:47:34 18° ENE 06:50:45 10° NNE visible
10 Dec ? 06:34:43 10° E 06:37:16 14° ENE 06:39:49 10° NNE visible
12 Dec ? 06:25:23 10° ENE 06:26:58 12° ENE 06:28:34 10° NE visible
15 Dec ? 06:56:06 10° ESE 06:59:46 22° ENE 07:03:27 10° NNE visible
17 Dec ? 06:46:14 10° ESE 06:49:26 18° ENE 06:52:38 10° NNE visible
